Regional Weather Roundup
Issued by NWS

Home | Current Version | Previous Version | Graphics & Text | Print | Product List | Glossary On
Versions: 1 2 3 4 5 6 7 8 9 10 11 12 13 14 15 16 17 18 19 20 21 22 23 24 25 26 27 28 29 30 31 32 33 34 35 36 37 38 39 40 41 42 43 44 45 46 47 48 49 50
000
ASUS45 KABQ 211210
RWRNM
NEW MEXICO REGIONAL WEATHER ROUNDUP
NATIONAL WEATHER SERVICE ALBUQUERQUE NM
500 AM MST TUE FEB 21 2017

NOTE: "FAIR" MEANS FEW OR NO CLOUDS BELOW 12,000 FEET AGL WITH NO
       SIGNIFICANT WEATHER OR OBSTRUCTIONS TO VISION.

      THIS PRODUCT IS RELEASED AS TWO VERSIONS.  ONE VERSION NEAR
      THE TOP OF THE HOUR CONTAINING PRELIMINARY DATA FROM ALBUQUERQUE
      AND OTHER STATIONS.  A FINAL VERSION WITH ADDITIONAL DATA IS
      ISSUED ABOUT 10 MINUTES AFTER THE HOUR.

NMZ501-503-504-510>518-211300-
NORTHWEST PLATEAU/NORTHCENTRAL MOUNTAINS

CITY           SKY/WX    TMP DP  RH WIND       PRES   REMARKS
FARMINGTON     FAIR      33  29  85 E9        30.36R WCI  25
6HR MIN TEMP:  32; 6HR MAX TEMP:  38;

LOS ALAMOS     FAIR      37  26  65 CALM      30.35F
SANTA FE       FAIR      39  27  62 N13       30.31F WCI  31
6HR MIN TEMP:  35; 6HR MAX TEMP:  41;

TAOS             N/A     27  16  63 NW5       30.36R WCI  21
ANGEL FIRE     FAIR      36  24  61 S13       30.35R WCI  27

$$
NMZ402-403-502-505>509-211300-
WESTCENTRAL MOUNTAINS/SOUTHWEST MOUNTAINS

CITY           SKY/WX    TMP DP  RH WIND       PRES   REMARKS
GALLUP         FAIR      24  22  91 CALM      30.41R
6HR MIN TEMP:  23; 6HR MAX TEMP:  31;

GRANTS         FAIR      27  26  94 NW13      30.41R WCI  17
SILVER CITY    FAIR      42  36  79 NW12      30.31F

$$
NMZ407-409-411-412-211300-
SOUTHERN DESERTS

CITY           SKY/WX    TMP DP  RH WIND       PRES   REMARKS
DEMING         FAIR      41  36  82 SW8       30.29S
6HR MIN TEMP:  39; 6HR MAX TEMP:  49;

LAS CRUCES     FAIR      41  34  77 NW7       30.29S
HOLLOMAN AFB   FAIR      36  26  67 N9        30.29S WCI  29
ALAMOGORDO     FAIR      46  27  46 N8        30.25F
T OR C         FAIR      44  32  62 N6        30.28S
6HR MIN TEMP:  43; 6HR MAX TEMP:  49;


$$
NMZ519>523-211300-
CENTRAL VALLEYS/CENTRAL HIGHLANDS

CITY           SKY/WX    TMP DP  RH WIND       PRES   REMARKS
ALBUQUERQUE    FAIR      42  33  70 N9        30.34S
6HR MIN TEMP:  42; 6HR MAX TEMP:  48;

DOUBLE EAGLE   FAIR      33  29  85 NW3       30.35S
MORIARTY ARPT  FAIR      40  31  72 N10       30.31S WCI  33
6HR MIN TEMP:  34; 6HR MAX TEMP:  47;

CLINES CORNERS FAIR      37  26  64 W28       30.26S WCI  25
6HR MIN TEMP:  31; 6HR MAX TEMP:  40;

BELEN          FAIR      36  30  78 N5        30.34R WCI  32
6HR MIN TEMP:  35; 6HR MAX TEMP:  44;

SOCORRO        FAIR      44  31  60 NE7       30.31S
6HR MIN TEMP:  39; 6HR MAX TEMP:  46;


$$
NMZ524>526-539-540-211300-
SOUTHCENTRAL MOUNTAINS

CITY           SKY/WX    TMP DP  RH WIND       PRES   REMARKS
RUIDOSO        FAIR      45  28  53 NW18G31   30.30S

$$
NMZ527>531-211300-
NORTHEAST HIGHLANDS/NORTHEAST PLAINS

CITY           SKY/WX    TMP DP  RH WIND       PRES   REMARKS
LAS VEGAS      FAIR      33  15  47 N7        30.20R WCI  27
6HR MIN TEMP:  24; 6HR MAX TEMP:  39;

RATON          NOT AVBL
CLAYTON        FAIR      41  19  41 SW10      30.08F
6HR MIN TEMP:  39; 6HR MAX TEMP:  43;


$$
NMZ532>537-211300-
EASTCENTRAL PLAINS

CITY           SKY/WX    TMP DP  RH WIND       PRES   REMARKS
TUCUMCARI      FAIR      30  21  69 CALM      30.09S
6HR MIN TEMP:  30; 6HR MAX TEMP:  46;

CANNON AFB     FAIR      40  29  63 NW8       30.10F WCI  35
6HR MIN TEMP:  36; 6HR MAX TEMP:  45;

CLOVIS AIRPORT FAIR      36  25  64 W10       30.11S WCI  28

$$
NMZ028-029-538-211300-
SOUTHEAST PLAINS

CITY           SKY/WX    TMP DP  RH WIND       PRES   REMARKS
ROSWELL        FAIR      38  24  57 SE7         N/A  WCI  33
6HR MIN TEMP:  36; 6HR MAX TEMP:  49;

ARTESIA        FAIR      36  27  69 S3        30.17S
CARLSBAD       FAIR      43  27  53 E5        30.15F
6HR MIN TEMP:  40; 6HR MAX TEMP:  55;

HOBBS          FAIR      36  25  64 W7        30.16S WCI  30


$$




USA.gov is the U.S. government's official web portal to all federal, state and local government web resources and services.